period_start,C,m1,H,J0,J1,J2,J3,J4,J5,JA,JB,JC,JD,JJ,JK,JN,#
2016-03-18 00:03:12,0.10,5.91,0.00,16.97,20.94,25.30,15.04,50.23,1021.01,2057.20,1807.92,1960.31,2231.98,600.35,611.40,32.39,0000 0000 0000 0000 000000
2016-03-18 00:08:13,0.15,5.92,0.00,17.01,20.98,25.34,15.01,50.13,1021.01,2057.05,1806.68,1959.30,2230.73,600.00,610.92,32.44,0000 0000 0000 0000 000000
2016-03-18 00:13:15,0.14,5.93,0.00,17.06,21.01,25.38,15.00,50.17,1021.01,2057.00,1805.45,1958.20,2229.53,600.05,610.97,32.49,0000 0000 0000 0000 000000
2016-03-18 00:18:16,0.13,5.93,0.00,17.10,21.05,25.42,15.05,50.08,1021.01,2057.00,1804.12,1957.12,2228.28,600.27,610.99,32.54,0000 0000 0000 0000 000000
2016-03-18 00:23:17,0.13,5.94,0.00,17.16,21.09,25.45,14.99,49.98,1021.01,2056.98,1802.93,1956.05,2227.02,600.12,610.60,32.59,0000 0000 0000 0000 000000
2016-03-18 00:28:17,0.12,5.95,0.00,17.21,21.13,25.48,15.00,49.98,1021.01,2056.91,1801.88,1955.08,2225.85,599.96,610.42,32.64,0000 0000 0000 0000 000000
2016-03-18 00:33:19,0.09,5.95,0.00,17.26,21.18,25.50,14.95,50.02,1021.02,2056.41,1800.49,1954.01,2224.60,599.77,610.15,32.70,0000 0000 0000 0000 000000
2016-03-18 00:38:20,0.11,5.96,0.00,17.32,21.22,25.54,14.92,50.07,1021.01,2056.07,1799.15,1952.97,2223.47,599.53,609.91,32.75,0000 0000 0000 0000 000000
2016-03-18 00:43:21,0.15,5.97,0.00,17.38,21.27,25.60,14.96,50.01,1021.02,2056.00,1797.82,1951.90,2222.14,600.14,610.25,32.80,0000 0000 0000 0000 000000
2016-03-18 00:48:22,0.17,5.97,0.00,17.43,21.31,25.63,14.95,49.93,1021.02,2056.00,1796.44,1950.72,2220.79,599.99,610.09,32.85,0000 0000 0000 0000 000000
2016-03-18 00:53:24,0.14,5.98,0.00,17.50,21.36,25.69,14.91,49.91,1021.10,2055.97,1795.15,1949.65,2219.57,599.99,609.94,32.90,0000 0000 0000 0000 000000
2016-03-18 00:58:25,0.10,5.99,0.00,17.55,21.40,25.73,14.99,49.92,1021.32,2055.63,1793.78,1948.61,2218.39,599.97,609.99,32.95,0000 0000 0000 0000 000000
2016-03-18 01:03:26,0.10,5.99,0.00,17.60,21.45,25.78,14.93,49.90,1021.44,2055.09,1792.44,1947.50,2217.05,599.93,610.01,33.00,0000 0000 0000 0000 000000
2016-03-18 01:08:27,0.14,6.00,0.00,17.66,21.50,25.84,14.98,49.91,1021.41,2055.00,1791.03,1946.36,2215.75,599.92,609.80,33.05,0000 0000 0000 0000 000000
2016-03-18 01:13:28,0.15,6.01,0.00,17.73,21.56,25.88,14.92,49.92,1021.47,2055.00,1789.78,1945.30,2214.51,599.71,609.50,33.10,0000 0000 0000 0000 000000
2016-03-18 01:18:30,0.14,6.02,0.00,17.80,21.61,25.98,14.98,50.00,1021.50,2054.99,1788.59,1944.24,2213.31,599.92,609.53,33.15,0000 0000 0000 0000 000000
2016-03-18 01:23:31,0.09,6.02,0.00,17.85,21.67,26.02,14.93,50.05,1021.50,2054.72,1787.19,1943.15,2211.95,599.86,609.35,33.20,0000 0000 0000 0000 000000
2016-03-18 01:28:32,0.10,6.03,0.00,17.91,21.73,26.12,14.99,49.99,1021.50,2054.16,1785.81,1942.01,2210.65,599.82,609.33,33.25,0000 0000 0000 0000 000000
2016-03-18 01:33:34,0.15,6.03,0.00,17.98,21.79,26.16,14.92,49.91,1021.50,2054.03,1784.46,1940.86,2209.41,599.98,609.21,33.30,0000 0000 0000 0000 000000
2016-03-18 01:38:35,0.16,6.04,0.00,18.04,21.85,26.18,14.92,49.98,1021.51,2054.00,1783.02,1939.69,2208.02,599.82,608.95,33.35,0000 0000 0000 0000 000000
2016-03-18 01:43:36,0.16,6.05,0.00,18.11,21.91,26.28,14.90,49.95,1021.54,2053.96,1781.65,1938.60,2206.68,600.02,609.03,33.40,0000 0000 0000 0000 000000
2016-03-18 01:48:38,0.07,6.06,0.00,18.18,21.97,26.39,14.96,49.99,1021.55,2053.49,1780.27,1937.45,2205.36,600.22,609.05,33.45,0000 0000 0000 0000 000000
2016-03-18 01:53:39,0.13,6.06,0.00,18.26,22.04,26.39,14.88,49.96,1021.75,2053.04,1778.86,1936.33,2203.94,600.06,608.92,33.50,0000 0000 0000 0000 000000
2016-03-18 01:58:40,0.16,6.07,0.00,18.32,22.10,26.46,14.93,50.05,1021.90,2053.00,1777.47,1935.14,2202.56,599.99,608.71,33.55,0000 0000 0000 0000 000000
2016-03-18 02:03:41,0.15,6.08,0.00,18.40,22.17,26.49,14.93,49.92,1021.97,2052.98,1776.07,1933.94,2201.25,599.88,608.52,33.61,0000 0000 0000 0000 000000
2016-03-18 02:08:43,0.10,6.08,0.00,18.47,22.24,26.54,14.90,50.07,1021.99,2052.45,1774.58,1932.73,2199.80,599.69,608.21,33.66,0000 0000 0000 0000 000000
2016-03-18 02:13:44,0.15,6.09,0.00,18.53,22.30,26.55,14.85,50.10,1021.99,2052.05,1773.02,1931.56,2198.46,599.94,608.44,33.71,0000 0000 0000 0000 000000
2016-03-18 02:18:46,0.17,6.10,0.00,18.61,22.37,26.64,14.87,50.06,1021.99,2052.00,1771.58,1930.36,2197.01,599.76,608.04,33.76,0000 0000 0000 0000 000000
2016-03-18 02:23:47,0.16,6.11,0.00,18.68,22.44,26.69,14.91,50.13,1021.99,2051.96,1770.11,1929.15,2195.60,600.18,608.17,33.81,0000 0000 0000 0000 000000
2016-03-18 02:28:48,0.07,6.11,0.00,18.75,22.51,26.81,14.87,50.18,1021.99,2051.39,1768.68,1927.94,2194.27,599.94,607.89,33.86,0000 0000 0000 0000 000000
2016-03-18 02:33:49,0.14,6.12,0.00,18.84,22.58,26.81,14.92,50.20,1021.99,2051.04,1767.37,1926.82,2192.92,599.82,607.54,33.91,0000 0000 0000 0000 000000
2016-03-18 02:38:50,0.17,6.13,0.00,18.90,22.64,26.90,14.84,50.13,1021.96,2051.00,1765.93,1925.68,2191.60,599.68,607.27,33.96,0000 0000 0000 0000 000000
2016-03-18 02:43:51,0.16,6.14,0.00,18.97,22.70,26.93,14.88,50.06,1021.95,2050.99,1764.50,1924.52,2190.21,599.70,607.07,34.01,0000 0000 0000 0000 000000
2016-03-18 02:48:52,0.09,6.14,0.00,19.04,22.76,26.98,14.83,50.01,1021.97,2050.68,1763.17,1923.49,2188.86,599.78,607.10,34.06,0000 0000 0000 0000 000000
2016-03-18 02:53:54,0.12,6.15,0.00,19.14,22.82,27.07,14.84,50.17,1021.97,2050.06,1761.61,1922.24,2187.52,600.21,607.30,34.11,0000 0000 0000 0000 000000
2016-03-18 02:58:55,0.15,6.16,0.00,19.21,22.88,27.15,14.83,50.09,1021.97,2050.00,1760.08,1921.01,2186.03,599.78,606.67,34.16,0000 0000 0000 0000 000000
2016-03-18 03:03:56,0.19,6.17,0.00,19.27,22.94,27.20,14.79,50.09,1021.94,2049.99,1758.47,1919.86,2184.60,600.00,606.93,34.21,0000 0000 0000 0000 000000
2016-03-18 03:08:57,0.10,6.17,0.00,19.33,23.00,27.28,14.88,49.95,1021.99,2049.54,1756.84,1918.63,2183.18,600.07,606.75,34.26,0000 0000 0000 0000 000000
2016-03-18 03:13:58,0.15,6.18,0.00,19.40,23.05,27.37,14.88,50.12,1021.99,2049.04,1755.26,1917.42,2181.66,599.93,606.68,34.31,0000 0000 0000 0000 000000
2016-03-18 03:19:00,0.17,6.19,0.00,19.46,23.11,27.42,14.87,50.01,1021.99,2049.00,1753.66,1916.16,2180.26,600.08,606.51,34.36,0000 0000 0000 0000 000000
2016-03-18 03:24:01,0.18,6.20,0.00,19.51,23.16,27.48,14.83,50.08,1021.99,2048.99,1752.10,1914.90,2178.75,600.16,606.52,34.41,0000 0000 0000 0000 000000
2016-03-18 03:29:02,0.16,6.21,0.00,19.58,23.21,27.53,14.83,49.98,1022.01,2048.83,1750.50,1913.68,2177.32,599.94,606.17,34.46,0000 0000 0000 0000 000000
2016-03-18 03:34:03,0.10,6.21,0.00,19.62,23.26,27.54,14.84,50.04,1022.01,2048.18,1748.93,1912.46,2175.81,600.15,606.27,34.51,0000 0000 0000 0000 000000
2016-03-18 03:39:05,0.16,6.22,0.00,19.68,23.32,27.65,14.78,49.91,1022.09,2048.02,1747.45,1911.31,2174.52,599.61,605.59,34.57,0000 0000 0000 0000 000000
2016-03-18 03:44:06,0.19,6.23,0.00,19.74,23.37,27.69,14.84,49.98,1022.05,2047.99,1745.83,1909.99,2173.02,600.16,606.12,34.62,0000 0000 0000 0000 000000
2016-03-18 03:49:07,0.18,6.24,0.00,19.79,23.42,27.75,14.85,50.18,1022.09,2047.84,1744.18,1908.67,2171.48,599.83,605.74,34.67,0000 0000 0000 0000 000000
2016-03-18 03:54:09,0.11,6.24,0.00,19.84,23.47,27.80,14.87,49.98,1022.34,2047.29,1742.51,1907.44,2169.92,600.25,606.12,34.72,0000 0000 0000 0000 000000
2016-03-18 03:59:10,0.17,6.25,0.00,19.92,23.52,27.81,14.76,50.13,1022.38,2047.02,1740.82,1906.08,2168.42,599.76,605.53,34.77,0000 0000 0000 0000 000000
2016-03-18 04:04:11,0.18,6.26,0.00,19.99,23.57,27.90,14.92,50.13,1022.41,2047.00,1739.24,1904.80,2166.86,600.07,605.75,34.82,0000 0000 0000 0000 000000
2016-03-18 04:09:13,0.20,6.27,0.00,20.05,23.62,27.91,14.81,49.95,1022.40,2047.00,1737.62,1903.61,2165.40,599.97,605.43,34.87,0000 0000 0000 0000 000000
2016-03-18 04:14:14,0.17,6.28,0.00,20.12,23.68,27.97,14.82,50.04,1022.45,2047.00,1736.05,1902.34,2163.88,600.01,605.36,34.92,0000 0000 0000 0000 000000
2016-03-18 04:19:15,0.18,6.29,0.00,20.17,23.73,28.01,14.82,49.88,1022.46,2046.97,1734.45,1901.06,2162.42,600.08,605.39,34.97,0000 0000 0000 0000 000000
2016-03-18 04:24:17,0.15,6.30,0.00,20.22,23.79,28.10,14.80,49.96,1022.48,2046.67,1732.76,1899.78,2160.88,600.16,605.19,35.02,0000 0000 0000 0000 000000
2016-03-18 04:29:18,0.13,6.30,0.00,20.28,23.84,28.22,14.79,50.05,1022.48,2046.07,1731.09,1898.50,2159.40,600.08,605.24,35.07,0000 0000 0000 0000 000000
2016-03-18 04:34:19,0.19,6.31,0.00,20.31,23.90,28.18,14.85,50.11,1022.48,2046.00,1729.46,1897.20,2157.78,599.81,604.81,35.12,0000 0000 0000 0000 000000
2016-03-18 04:39:20,0.19,6.32,0.00,20.35,23.96,28.27,14.77,50.14,1022.48,2046.00,1727.80,1895.91,2156.26,599.67,604.50,35.17,0000 0000 0000 0000 000000
2016-03-18 04:44:21,0.18,6.33,0.00,20.38,24.01,28.27,14.76,50.01,1022.49,2045.91,1726.32,1894.65,2154.68,600.12,605.09,35.22,0000 0000 0000 0000 000000
2016-03-18 04:49:23,0.11,6.34,0.00,20.43,24.07,28.34,14.68,49.96,1022.50,2045.33,1724.66,1893.35,2153.15,599.22,603.97,35.27,0000 0000 0000 0000 000000
2016-03-18 04:54:24,0.15,6.35,0.00,20.47,24.13,28.44,14.75,49.82,1022.48,2045.03,1723.11,1892.10,2151.67,600.27,604.91,35.32,0000 0000 0000 0000 000000
2016-03-18 04:59:25,0.20,6.36,0.00,20.51,24.18,28.44,14.79,50.01,1022.48,2045.00,1721.52,1890.78,2150.08,599.64,604.18,35.37,0000 0000 0000 0000 000000
2016-03-18 05:04:26,0.20,6.37,0.00,20.57,24.24,28.49,14.77,49.87,1022.49,2044.97,1719.78,1889.52,2148.57,600.27,604.67,35.42,0000 0000 0000 0000 000000
2016-03-18 05:09:27,0.14,6.38,0.00,20.62,24.29,28.55,14.78,50.04,1022.52,2044.77,1718.10,1888.26,2147.03,599.82,604.14,35.47,0000 0000 0000 0000 000000
2016-03-18 05:14:29,0.13,6.38,0.00,20.66,24.34,28.59,14.77,49.92,1022.73,2044.11,1716.44,1886.89,2145.47,599.95,604.31,35.53,0000 0000 0000 0000 000000
2016-03-18 05:19:30,0.20,6.39,0.00,20.69,24.40,28.65,14.77,50.08,1022.67,2044.01,1714.79,1885.58,2143.90,600.02,604.33,35.58,0000 0000 0000 0000 000000
2016-03-18 05:24:32,0.19,6.40,0.00,20.74,24.46,28.72,14.82,50.03,1022.64,2044.00,1713.16,1884.33,2142.35,600.09,604.37,35.63,0000 0000 0000 0000 000000
2016-03-18 05:29:33,0.18,6.41,0.00,20.77,24.51,28.76,14.79,50.02,1022.59,2043.99,1711.63,1883.06,2140.81,599.91,603.86,35.68,0000 0000 0000 0000 000000
2016-03-18 05:34:34,0.12,6.42,0.00,20.81,24.56,28.91,14.82,49.83,1022.58,2043.57,1710.05,1881.79,2139.36,600.23,604.23,35.73,0000 0000 0000 0000 000000
2016-03-18 05:39:35,0.16,6.43,0.00,20.83,24.61,29.03,14.79,49.77,1022.69,2043.05,1708.46,1880.58,2137.79,600.05,604.08,35.78,0000 0000 0000 0000 000000
2016-03-18 05:44:37,0.19,6.44,0.00,20.86,24.66,28.95,14.87,49.92,1022.86,2043.00,1706.78,1879.33,2136.32,600.14,604.22,35.83,0000 0000 0000 0000 000000
2016-03-18 05:49:38,0.17,6.45,0.00,20.90,24.71,29.08,14.70,49.90,1022.87,2042.99,1705.25,1878.07,2134.80,599.85,603.94,35.88,0000 0000 0000 0000 000000
2016-03-18 05:54:39,0.18,6.46,0.00,20.94,24.75,29.04,14.80,49.92,1022.85,2042.89,1703.68,1876.88,2133.39,600.06,603.95,35.93,0000 0000 0000 0000 000000
2016-03-18 05:59:40,0.11,6.46,0.00,20.96,24.79,29.06,14.79,50.07,1022.72,2042.24,1702.03,1875.63,2131.87,600.09,603.87,35.98,0000 0000 0000 0000 000000
2016-03-18 06:04:42,0.17,6.47,0.00,20.97,24.83,29.10,14.80,49.95,1022.91,2042.05,1700.53,1874.53,2130.55,600.15,604.07,36.03,0000 0000 0000 0000 000000
2016-03-18 06:09:43,0.17,6.48,0.00,20.99,24.87,29.15,14.83,49.88,1022.91,2042.01,1698.94,1873.37,2129.17,599.96,603.92,36.08,0000 0000 0000 0000 000000
2016-03-18 06:14:44,0.18,6.49,0.00,21.02,24.91,29.16,14.72,49.72,1022.89,2042.00,1697.49,1872.20,2127.72,599.64,603.39,36.13,0000 0000 0000 0000 000000
2016-03-18 06:19:45,0.17,6.50,0.00,21.03,24.95,29.23,14.69,49.69,1022.95,2041.98,1695.91,1871.00,2126.37,599.55,603.26,36.18,0000 0000 0000 0000 000000
2016-03-18 06:24:47,0.16,6.51,0.00,21.05,24.97,29.24,14.73,49.63,1022.96,2041.84,1694.42,1869.86,2124.92,600.07,603.86,36.23,0000 0000 0000 0000 000000
2016-03-18 06:29:48,0.14,6.51,0.00,21.08,25.01,29.29,14.70,49.57,1022.98,2041.46,1692.87,1868.74,2123.57,599.69,603.42,36.28,0000 0000 0000 0000 000000
2016-03-18 06:34:49,0.13,6.52,0.00,21.10,25.04,29.29,14.78,49.52,1022.99,2041.09,1691.46,1867.65,2122.23,600.28,603.91,36.33,0000 0000 0000 0000 000000
2016-03-18 06:39:50,0.17,6.53,0.00,21.11,25.07,29.33,14.74,49.29,1022.99,2041.01,1689.88,1866.53,2120.84,600.09,603.73,36.39,0000 0000 0000 0000 000000
2016-03-18 06:44:52,0.18,6.54,0.00,21.12,25.10,29.37,14.84,49.44,1022.99,2041.00,1688.46,1865.31,2119.50,600.04,603.49,36.44,0000 0000 0000 0000 000000
2016-03-18 06:49:53,0.16,6.55,0.00,21.15,25.13,29.41,14.75,49.39,1022.99,2040.99,1686.94,1864.20,2118.13,599.78,603.28,36.49,0000 0000 0000 0000 000000
2016-03-18 06:54:54,0.18,6.56,0.00,21.17,25.16,29.44,14.83,49.53,1022.97,2040.98,1685.49,1863.12,2116.76,599.85,603.33,36.54,0000 0000 0000 0000 000000
2016-03-18 06:59:55,0.17,6.57,0.00,21.19,25.19,29.45,14.79,49.50,1022.97,2040.93,1683.95,1861.93,2115.46,599.99,603.39,36.59,0000 0000 0000 0000 000000
2016-03-18 07:04:57,0.10,6.57,0.00,21.22,25.22,29.47,14.88,49.56,1022.97,2040.48,1682.52,1860.80,2114.09,600.45,603.66,36.64,0000 0000 0000 0000 000000
2016-03-18 07:09:58,0.16,6.58,0.00,21.24,25.26,29.52,14.75,49.39,1022.96,2040.09,1681.00,1859.70,2112.70,599.90,603.23,36.69,0000 0000 0000 0000 000000
2016-03-18 07:15:00,0.18,6.59,0.00,21.28,25.29,29.56,14.72,49.44,1022.98,2040.03,1679.57,1858.63,2111.39,599.72,603.02,36.74,0000 0000 0000 0000 000000
2016-03-18 07:20:01,0.15,6.59,0.00,21.29,25.32,29.59,14.78,49.43,1022.98,2040.00,1678.13,1857.49,2110.22,599.93,603.27,36.79,0000 0000 0000 0000 000000
2016-03-18 07:25:02,0.20,6.60,0.00,21.33,25.35,29.60,14.75,49.46,1022.98,2040.00,1676.60,1856.36,2108.80,600.10,603.29,36.84,0000 0000 0000 0000 000000
2016-03-18 07:30:04,0.16,6.61,0.00,21.34,25.38,29.64,14.78,49.40,1022.97,2039.99,1675.12,1855.28,2107.45,599.98,603.13,36.89,0000 0000 0000 0000 000000
2016-03-18 07:35:05,0.18,6.62,0.00,21.36,25.41,29.66,14.75,49.33,1022.96,2039.97,1673.57,1854.28,2106.02,599.77,602.78,36.94,0000 0000 0000 0000 000000
2016-03-18 07:40:06,0.16,6.63,0.00,21.37,25.44,29.69,14.77,49.48,1022.97,2039.93,1672.11,1853.18,2104.68,599.78,602.98,36.99,0000 0000 0000 0000 000000
2016-03-18 07:45:07,0.10,6.64,0.00,21.39,25.47,29.75,14.76,49.43,1022.96,2039.42,1670.68,1852.09,2103.41,600.10,603.08,37.04,0000 0000 0000 0000 000000
2016-03-18 07:50:09,0.13,6.64,0.00,21.42,25.49,29.77,14.83,49.41,1022.98,2039.06,1669.32,1850.96,2102.04,600.31,603.28,37.09,0000 0000 0000 0000 000000
2016-03-18 07:55:10,0.19,6.65,0.00,21.44,25.51,29.79,14.81,49.50,1022.97,2039.03,1667.79,1849.89,2100.74,599.94,602.91,37.14,0000 0000 0000 0000 000000
2016-03-18 08:00:11,0.18,6.66,0.00,21.46,25.54,29.80,14.71,49.42,1022.96,2039.00,1666.29,1848.78,2099.41,600.02,603.00,37.19,0000 0000 0000 0000 000000
2016-03-18 08:05:13,0.20,6.67,0.00,21.49,25.56,29.85,14.74,49.48,1022.96,2039.00,1664.67,1847.67,2098.02,600.16,603.03,37.24,0000 0000 0000 0000 000000
2016-03-18 08:10:14,0.18,6.68,0.00,21.51,25.58,29.89,14.78,49.47,1022.96,2038.99,1663.24,1846.48,2096.64,599.90,602.74,37.30,0000 0000 0000 0000 000000
2016-03-18 08:15:15,0.16,6.69,0.00,21.52,25.61,29.92,14.76,49.57,1022.96,2038.96,1661.82,1845.44,2095.41,600.01,602.76,37.35,0000 0000 0000 0000 000000
2016-03-18 08:20:16,0.16,6.70,0.00,21.54,25.63,29.85,14.72,49.32,1022.96,2038.89,1660.39,1844.35,2094.04,599.95,602.71,37.40,0000 0000 0000 0000 000000
2016-03-18 08:25:18,0.11,6.71,0.00,21.55,25.65,29.88,14.81,49.52,1022.96,2038.44,1658.87,1843.29,2092.70,600.02,602.70,37.45,0000 0000 0000 0000 000000
2016-03-18 08:30:19,0.14,6.71,0.00,21.57,25.67,29.90,14.77,49.40,1022.96,2038.07,1657.43,1842.18,2091.41,600.17,602.81,37.50,0000 0000 0000 0000 000000
2016-03-18 08:35:20,0.18,6.72,0.00,21.58,25.69,29.94,14.73,49.45,1022.96,2038.06,1655.92,1841.08,2090.10,599.81,602.56,37.55,0000 0000 0000 0000 000000
2016-03-18 08:40:22,0.19,6.73,0.00,21.59,25.71,29.94,14.77,49.43,1022.96,2038.03,1654.39,1839.93,2088.68,600.11,602.79,37.60,0000 0000 0000 0000 000000
2016-03-18 08:45:23,0.19,6.74,0.00,21.59,25.72,29.98,14.82,49.66,1022.96,2038.00,1652.77,1838.79,2087.36,600.06,602.67,37.65,0000 0000 0000 0000 000000
2016-03-18 08:50:25,0.19,6.75,0.00,21.62,25.75,29.99,14.85,49.75,1022.96,2038.00,1651.23,1837.66,2085.93,600.17,602.74,37.70,0000 0000 0000 0000 000000
2016-03-18 08:55:26,0.19,6.76,0.00,21.64,25.77,30.03,14.74,49.71,1022.95,2038.00,1649.72,1836.57,2084.64,599.82,602.40,37.75,0000 0000 0000 0000 000000
2016-03-18 09:00:27,0.17,6.77,0.00,21.64,25.79,30.04,14.85,49.49,1022.95,2038.00,1648.26,1835.47,2083.31,600.10,602.64,37.80,0000 0000 0000 0000 000000
2016-03-18 09:05:29,0.20,6.78,0.00,21.62,25.80,30.08,14.79,49.52,1022.96,2037.98,1646.65,1834.33,2081.82,599.91,602.48,37.85,0000 0000 0000 0000 000000
2016-03-18 09:10:30,0.17,6.79,0.00,21.62,25.82,30.08,14.79,49.71,1022.98,2037.95,1645.07,1833.20,2080.54,599.89,602.41,37.90,0000 0000 0000 0000 000000
2016-03-18 09:15:31,0.17,6.80,0.00,21.62,25.84,30.10,14.83,49.58,1023.01,2037.94,1643.67,1832.15,2079.21,600.08,602.62,37.95,0000 0000 0000 0000 000000
2016-03-18 09:20:32,0.16,6.81,0.00,21.64,25.86,30.14,14.77,49.39,1023.14,2037.82,1642.12,1831.01,2077.86,600.05,602.79,38.00,0000 0000 0000 0000 000000
2016-03-18 09:25:34,0.15,6.81,0.00,21.66,25.87,30.12,14.70,49.51,1023.23,2037.52,1640.66,1829.91,2076.55,599.83,602.50,38.05,0000 0000 0000 0000 000000
2016-03-18 09:30:35,0.14,6.82,0.00,21.66,25.89,30.16,14.79,49.56,1023.13,2037.25,1639.17,1828.82,2075.21,599.94,602.60,38.10,0000 0000 0000 0000 000000
2016-03-18 09:35:36,0.19,6.83,0.00,21.65,25.90,30.16,14.78,49.52,1023.39,2037.06,1637.63,1827.68,2073.79,599.92,602.68,38.15,0000 0000 0000 0000 000000
2016-03-18 09:40:37,0.18,6.84,0.00,21.67,25.92,30.21,14.89,49.52,1023.45,2037.02,1636.08,1826.55,2072.43,600.28,603.03,38.21,0000 0000 0000 0000 000000
2016-03-18 09:45:39,0.18,6.85,0.00,21.67,25.92,30.19,14.77,49.53,1023.45,2037.00,1634.58,1825.44,2071.05,600.04,602.87,38.26,0000 0000 0000 0000 000000
2016-03-18 09:50:40,0.18,6.86,0.00,21.68,25.94,30.19,14.78,49.63,1023.45,2037.00,1633.09,1824.39,2069.67,599.79,602.51,38.31,0000 0000 0000 0000 000000
2016-03-18 09:55:41,0.18,6.87,0.00,21.69,25.95,30.21,14.74,49.51,1023.45,2037.00,1631.58,1823.31,2068.39,599.85,602.53,38.36,0000 0000 0000 0000 000000
2016-03-18 10:00:42,0.19,6.88,0.00,21.70,25.95,30.22,14.83,49.40,1023.45,2037.00,1629.92,1822.14,2066.95,600.10,602.76,38.41,0000 0000 0000 0000 000000
2016-03-18 10:05:44,0.19,6.89,0.00,21.70,25.97,30.31,14.74,49.33,1023.45,2037.00,1628.44,1821.03,2065.62,599.88,602.55,38.46,0000 0000 0000 0000 000000
2016-03-18 10:10:45,0.19,6.90,0.00,21.71,25.97,30.28,14.74,49.52,1023.45,2037.00,1626.91,1819.93,2064.29,599.96,602.65,38.51,0000 0000 0000 0000 000000
2016-03-18 10:15:46,0.20,6.91,0.00,21.69,25.98,30.30,14.73,49.43,1023.45,2037.00,1625.40,1818.83,2062.88,600.05,602.70,38.56,0000 0000 0000 0000 000000
2016-03-18 10:20:47,0.21,6.92,0.00,21.70,26.00,30.32,14.75,49.51,1023.45,2036.99,1623.79,1817.69,2061.52,600.12,602.90,38.61,0000 0000 0000 0000 000000
2016-03-18 10:25:49,0.18,6.93,0.00,21.70,26.00,30.33,14.76,49.48,1023.44,2036.98,1622.14,1816.56,2060.14,600.11,602.87,38.66,0000 0000 0000 0000 000000
2016-03-18 10:30:50,0.20,6.94,0.00,21.69,26.00,30.32,14.70,49.53,1023.43,2036.96,1620.53,1815.44,2058.70,599.94,602.63,38.71,0000 0000 0000 0000 000000
2016-03-18 10:35:51,0.19,6.95,0.00,21.69,26.02,30.33,14.80,49.63,1023.40,2036.96,1619.00,1814.30,2057.39,600.18,602.80,38.76,0000 0000 0000 0000 000000
2016-03-18 10:40:52,0.18,6.96,0.00,21.68,26.02,30.29,14.73,49.42,1023.43,2036.96,1617.46,1813.23,2056.01,599.73,602.46,38.81,0000 0000 0000 0000 000000
2016-03-18 10:45:54,0.18,6.97,0.00,21.67,26.02,30.29,14.76,49.62,1023.45,2036.93,1615.94,1812.14,2054.65,599.69,602.43,38.86,0000 0000 0000 0000 000000
2016-03-18 10:50:55,0.16,6.98,0.00,21.68,26.04,30.32,14.75,49.58,1023.45,2036.80,1614.46,1810.98,2053.32,600.19,602.95,38.91,0000 0000 0000 0000 000000
2016-03-18 10:55:56,0.19,6.99,0.00,21.69,26.05,30.36,14.80,49.70,1023.45,2036.60,1612.76,1809.85,2051.84,599.99,602.69,38.96,0000 0000 0000 0000 000000
2016-03-18 11:00:58,0.18,6.99,0.00,21.69,26.05,30.35,14.75,49.62,1023.45,2036.57,1611.20,1808.75,2050.54,600.13,602.81,39.02,0000 0000 0000 0000 000000
2016-03-18 11:05:59,0.22,7.00,0.00,21.69,26.05,30.31,14.72,49.65,1023.45,2036.71,1609.65,1807.68,2049.17,599.85,602.54,39.07,0000 0000 0000 0000 000000
2016-03-18 11:11:01,0.17,7.01,0.00,21.69,26.05,30.34,14.76,49.55,1023.44,2036.61,1608.14,1806.62,2047.75,599.88,602.47,39.12,0000 0000 0000 0000 000000
2016-03-18 11:16:02,0.18,7.02,0.00,21.69,26.07,30.30,14.78,49.51,1023.31,2036.61,1606.63,1805.56,2046.74,600.03,602.71,39.17,0000 0000 0000 0000 000000
2016-03-18 11:21:03,0.16,7.03,0.00,21.72,26.07,30.35,14.74,49.41,1023.23,2036.52,1605.10,1804.47,2045.45,600.21,602.73,39.22,0000 0000 0000 0000 000000
2016-03-18 11:26:05,0.15,7.04,0.00,21.72,26.07,30.37,14.75,49.60,1023.21,2036.21,1603.56,1803.33,2044.03,599.95,602.49,39.27,0000 0000 0000 0000 000000
2016-03-18 11:31:06,0.17,7.05,0.00,21.72,26.07,30.27,14.83,49.63,1023.20,2036.11,1602.02,1802.26,2042.69,600.21,602.59,39.32,0000 0000 0000 0000 000000
2016-03-18 11:36:07,0.19,7.06,0.00,21.72,26.07,30.30,14.75,49.53,1023.19,2036.04,1600.51,1801.17,2041.41,599.64,602.12,39.37,0000 0000 0000 0000 000000
2016-03-18 11:41:09,0.16,7.07,0.00,21.72,26.08,30.36,14.90,49.67,1023.16,2036.04,1598.99,1800.06,2040.04,600.12,602.49,39.42,0000 0000 0000 0000 000000
2016-03-18 11:46:10,0.21,7.08,0.00,21.72,26.07,30.37,14.81,49.73,1023.38,2036.04,1597.57,1798.98,2038.70,600.13,602.74,39.47,0000 0000 0000 0000 000000
2016-03-18 11:51:11,0.17,7.09,0.00,21.70,26.09,30.34,14.76,49.59,1023.44,2036.04,1596.13,1797.97,2037.49,599.95,602.66,39.52,0000 0000 0000 0000 000000
2016-03-18 11:56:12,0.20,7.10,0.00,21.70,26.09,30.34,14.78,49.67,1023.42,2036.02,1594.63,1796.87,2036.15,599.75,602.45,39.57,0000 0000 0000 0000 000000
2016-03-18 12:01:13,0.17,7.11,0.00,21.71,26.10,30.39,14.78,49.56,1023.40,2036.01,1593.13,1795.84,2034.83,599.83,602.44,39.62,0000 0000 0000 0000 000000
2016-03-18 12:06:15,0.19,7.12,0.00,21.71,26.10,30.34,14.77,49.57,1023.21,2036.02,1591.68,1794.83,2033.59,600.12,602.68,39.67,0000 0000 0000 0000 000000
2016-03-18 12:11:16,0.17,7.13,0.00,21.71,26.10,30.39,14.84,49.72,1023.28,2036.01,1590.21,1793.81,2032.38,600.17,602.76,39.72,0000 0000 0000 0000 000000
2016-03-18 12:16:17,0.20,7.13,0.00,21.71,26.10,30.35,14.73,49.58,1023.30,2036.00,1588.75,1792.74,2031.09,600.10,602.64,39.77,0000 0000 0000 0000 000000
2016-03-18 12:21:18,0.16,7.14,0.00,21.72,26.10,30.38,14.79,49.71,1023.26,2036.00,1587.30,1791.81,2029.75,599.89,602.50,39.82,0000 0000 0000 0000 000000
2016-03-18 12:26:20,0.19,7.15,0.00,21.71,26.10,30.35,14.84,49.72,1023.41,2036.00,1585.86,1790.79,2028.53,600.05,602.74,39.87,0000 0000 0000 0000 000000
2016-03-18 12:31:21,0.17,7.16,0.00,21.68,26.10,30.35,14.81,49.77,1023.43,2036.00,1584.50,1789.86,2027.41,599.85,602.58,39.92,0000 0000 0000 0000 000000
2016-03-18 12:36:22,0.17,7.17,0.00,21.68,26.10,30.34,14.86,49.73,1023.45,2036.00,1583.08,1788.80,2026.11,600.01,602.87,39.98,0000 0000 0000 0000 000000
2016-03-18 12:41:24,0.18,7.18,0.00,21.68,26.10,30.35,14.83,49.85,1023.45,2036.00,1581.66,1787.83,2024.88,600.36,603.10,40.03,0000 0000 0000 0000 000000
2016-03-18 12:46:25,0.19,7.19,0.00,21.67,26.10,30.35,14.82,49.96,1023.45,2036.00,1580.24,1786.78,2023.67,600.18,602.90,40.08,0000 0000 0000 0000 000000
2016-03-18 12:51:26,0.17,7.20,0.00,21.65,26.11,30.31,14.74,49.90,1023.45,2036.00,1578.84,1785.82,2022.53,599.70,602.49,40.13,0000 0000 0000 0000 000000
2016-03-18 12:56:27,0.17,7.21,0.00,21.65,26.12,30.39,14.81,49.93,1023.45,2036.00,1577.59,1784.83,2021.34,599.73,602.58,40.18,0000 0000 0000 0000 000000